This demonstration page uses our WeatherBlox Daily Observations layout. Learn more.

Left ArrowRight Arrow

36.17497, -115.13722

Hourly Observations for September 27, 2022

Temp ( °F °C ) Dew Point ( °F °C ) Humidity (%) Winds ( mph kmh ) Pressure ( in mb ) Visibility ( mi km ) Precip ( " mm )
12:53 am 00:53 Clear 77 25 33 0.6 20 20 N 5 7 29.94 1014 10 16 0.00 0.00
1:53 am 01:53 Mostly Clear 78 25.6 34 1.1 20 20 W 7 11 29.94 1014 10 16 0.00 0.00
2:53 am 02:53 Clear 78 25.6 32 0 19 19 W 7 11 29.92 1013 10 16 0.00 0.00
3:53 am 03:53 Clear 77 25 31 -0.6 18 18 Calm 29.93 1014 10 16 0.00 0.00
4:53 am 04:53 Clear 73 22.8 32 0 22 22 Calm 29.95 1014 10 16 0.00 0.00
5:53 am 05:53 Clear 76 24.4 30 -1.1 18 18 WNW 7 11 29.97 1015 10 16 0.00 0.00
6:53 am 06:53 Sunny 76 24.4 33 0.6 21 21 Calm 29.98 1015 10 16 0.00 0.00
7:53 am 07:53 Sunny 78 25.6 35 1.7 21 21 NW 5 7 30.00 1016 10 16 0.00 0.00
8:53 am 08:53 Sunny 84 28.9 33 0.6 16 16 NW 5 7 30.01 1016 10 16 0.00 0.00
9:53 am 09:53 Sunny 88 31.1 35 1.7 15 15 Calm 30.01 1016 10 16 0.00 0.00
10:53 am 10:53 Sunny 90 32.2 34 1.1 14 14 VRB 3 6 30.01 1016 10 16 0.00 0.00
11:53 am 11:53 Sunny 93 33.9 33 0.6 12 12 ENE 6 9 30.00 1016 10 16 0.00 0.00
12:53 pm 12:53 Sunny 95 35 35 1.7 12 12 SSE 7 11 29.97 1015 10 16 0.00 0.00
1:53 pm 13:53 Sunny 96 35.6 34 1.1 11 11 undefined N/A 29.94 1014 10 16 0.00 0.00
2:53 pm 14:53 Sunny 99 37.2 34 1.1 10 10 E 8 13 29.91 1013 10 16 0.00 0.00
3:53 pm 15:53 Sunny 98 36.7 37 2.8 12 12 ESE 8 13 29.90 1013 10 16 0.00 0.00
4:53 pm 16:53 Sunny 97 36.1 39 3.9 14 14 SE 9 15 29.89 1012 10 16 0.00 0.00
5:53 pm 17:53 Sunny 97 36.1 41 5 15 15 ESE 9 15 29.89 1012 10 16 0.00 0.00
6:53 pm 18:53 Clear 94 34.4 41 5 16 16 ESE 6 9 29.90 1012 10 16 0.00 0.00
7:53 pm 19:53 Clear 93 33.9 42 5.6 17 17 Calm 29.91 1013 10 16 0.00 0.00
8:53 pm 20:53 Clear 90 32.2 43 6.1 20 20 W 5 7 29.93 1014 10 16 0.00 0.00
9:53 pm 21:53 Clear 87 30.6 44 6.7 22 22 WNW 5 7 29.94 1014 10 16 0.00 0.00
10:53 pm 22:53 Clear 86 30 45 7.2 24 24 NNW 6 9 29.95 1014 10 16 0.00 0.00
11:53 pm 23:53 Clear 84 28.9 43 6.1 24 24 NW 5 7 29.95 1014 10 16 0.00 0.00

Powered by AerisWeather